Overview Statistics Trail Chart Weather Telemetry Raw packets
 

This is the latest recevied weather packets stored in our database for station/object HS3MXC-2. If no packets are shown the sender has not sent any weather packets the latest 10 day(s).

<< 20 21 22 23 24 25 26 >>
Time Temp. Humidity Pressure Rain* Wind** Luminosity Snow
1777526135 26.67° C 42% 998 hPa - - - -
1777525828 26.67° C 43% 998.1 hPa - - - -
1777525526 26.11° C 44% 998.3 hPa - - - -
1777525219 25.56° C 45% 998.4 hPa - - - -
1777524906 26.11° C 47% 998.5 hPa - - - -
1777524288 25.56° C 47% 998.7 hPa - - - -
1777523981 25.56° C 45% 998.7 hPa - - - -
1777523673 25° C 41% 998.7 hPa - - - -
1777523366 25° C 41% 998.8 hPa - - - -
1777522736 25° C 43% 998.9 hPa - - - -
1777522427 25° C 42% 999 hPa - - - -
1777522120 25° C 42% 999 hPa - - - -
1777521813 25° C 42% 999.1 hPa - - - -
1777521505 25° C 43% 999.1 hPa - - - -
1777521198 25° C 43% 999.1 hPa - - - -
1777520891 25° C 44% 999.2 hPa - - - -
1777520584 25.56° C 46% 999.3 hPa - - - -
1777520271 26.11° C 48% 999.2 hPa - - - -
1777519964 26.11° C 49% 999.4 hPa - - - -
1777519349 26.11° C 47% 999.3 hPa - - - -
1777519042 25.56° C 47% 999.3 hPa - - - -
1777518735 25.56° C 50% 999.4 hPa - - - -
1777518427 26.11° C 52% 999.4 hPa - - - -
1777518120 26.67° C 51% 999.4 hPa - - - -
1777517813 26.11° C 49% 999.4 hPa - - - -

* Rain since midnight (hover to see other rain measurements)
** Current wind speed in m/s (hover to see current wind gust speed)